Regional Weather Roundup
Issued by NWS

Home | Current Version | Previous Version | Graphics & Text | Print | Product List | Glossary On
Versions: 1 2 3 4 5 6 7 8 9 10 11 12 13 14 15 16 17 18 19 20 21 22 23 24 25 26 27 28 29 30 31 32 33 34 35 36 37 38 39 40 41 42 43 44 45 46 47 48 49 50
000
ASUS45 KPSR 222210
RWRAZ

ARIZONA HOURLY REGIONAL WEATHER ROUNDUP
NATIONAL WEATHER SERVICE PHOENIX AZ
300 PM MST FRI MAY 22 2015

NOTE: FAIR INDICATES FEW OR NO CLOUDS BELOW 12,000 FEET WITH NO
SIGNIFICANT WEATHER AND/OR OBSTRUCTIONS TO VISIBILITY.

AZZ001>003-036-222300-
NORTHWEST ARIZONA

CITY           SKY/WX    TMP DP  RH WIND       PRES   REMARKS
BULLHEAD CITY  PTSUNNY   73  41  31 SW20G31   29.84R
KINGMAN        PTSUNNY   66  35  31 SW21G31   29.89S
$$

AZZ004>008-015-016-018-222300-
NORTH CENTRAL ARIZONA

CITY           SKY/WX    TMP DP  RH WIND       PRES   REMARKS
WILLIAMS       CLOUDY    46  34  61 SW13G30   30.04R
PRESCOTT       PTSUNNY   59  29  31 SW16G24   29.94F
FLAGSTAFF      LGT RAIN  47  35  63 S13G24    29.99F
PAYSON         PTSUNNY   61  27  27 SW18G29   29.98S
$$

AZZ009>014-017-222300-
NORTHEAST ARIZONA

CITY           SKY/WX    TMP DP  RH WIND       PRES   REMARKS
WINSLOW        MOSUNNY   73  20  13 S32G41    29.90F
SAINT JOHNS    MOSUNNY   75  15  10 S22G36    29.89F
WINDOW ROCK    CLOUDY    66  20  17 SW17G31   29.96F
SHOW LOW       MOSUNNY   64  18  16 SW24G37   29.98R
$$

AZZ023-222300-
GREATER PHOENIX AREA

CITY           SKY/WX    TMP DP  RH WIND       PRES   REMARKS
PHOENIX        MOSUNNY   79  38  22 W17G23    29.85S
BUCKEYE        SUNNY     77  32  19 SW16G24   29.88F
GLENDALE       MOSUNNY   79  37  22 S14G23    29.88F
LUKE AFB       SUNNY     78  39  24 SW12G21   29.86S
DEER VALLEY    MOSUNNY   77  37  23 SW16      29.87R
SCOTTSDALE     SUNNY     76  38  25 W13G23    29.88S
MESA-GATEWAY   MOSUNNY   79  43  27 W13G22    29.88S
CHANDLER       MOSUNNY   79  41  25 SW17G25   29.86S
$$

AZZ027-028-222300-
SOUTHWEST MARICOPA COUNTY AND PINAL COUNTY

CITY           SKY/WX    TMP DP  RH WIND       PRES   REMARKS
CASA GRANDE    MOSUNNY   79  43  27 W17       29.86R
GILA BEND      FAIR      78  36  21 W14G24    29.87F
$$

AZZ503-504-507>509-222300-
SOUTHEAST ARIZONA

CITY           SKY/WX    TMP DP  RH WIND       PRES   REMARKS
TUCSON         SUNNY     82  24  12 W21G29    29.92S
DAVIS-MONTHAN  SUNNY     81  23  12 W21       29.89S
NOGALES        SUNNY     78  22  12 SW20G31   29.97S
SIERRA VISTA   SUNNY     76  19  11 SW26G36   29.99S
DOUGLAS        MOSUNNY   81  17   9 SW15G36   29.95F
SAFFORD        SUNNY     86  14   7 S24G31    29.82F
$$

AZZ020-021-025-026-031-222300-
SOUTHWEST ARIZONA

CITY           SKY/WX    TMP DP  RH WIND       PRES   REMARKS
YUMA           SUNNY     80  39  23 W12G24    29.89F
$$

CAZ031-033-041-043-047-048-061-222300-
SOUTHERN CALIFORNIA

CITY           SKY/WX    TMP DP  RH WIND       PRES   REMARKS
DOWNTOWN L.A.  CLOUDY    67  50  54 MISG      30.01S
L.A. AIRPORT   PTSUNNY   64  53  67 SW14      30.03S
SAN DIEGO      PTSUNNY   67  50  54 SW13      30.06S
BURBANK        CLOUDY    65  46  50 SE8       30.00S
ONTARIO        CLOUDY    61  47  59 W6        30.02S
RIVERSIDE      CLOUDY    63  48  58 W10       30.02S
PALM SPRINGS   MOSUNNY   79  40  24 NW17G26   29.87F
EL CENTRO NAS  MOSUNNY   78  40  25 SW28G37   29.92S
IMPERIAL       MOSUNNY   78  42  27 W21G30    29.89S
BLYTHE         MOSUNNY   81  40  23 W13G24    29.83F
NEEDLES        PTSUNNY   77  32  19 W10       29.82S
$$

NVZ020-UTZ003-222300-
SOUTHERN NEVADA-UTAH

CITY           SKY/WX    TMP DP  RH WIND       PRES   REMARKS
LAS VEGAS      PTSUNNY   73  37  27 W3        29.78F
SALT LAKE CITY LGT RAIN  58  46  64 E14       29.88S
$$

NMZ009-TXZ055-222300-
NEW MEXICO-WEST TEXAS

CITY           SKY/WX    TMP DP  RH WIND       PRES   REMARKS
ALBUQUERQUE    MOSUNNY   74  33  22 S23G35    29.97F
EL PASO        MOSUNNY   89  21   8 SW10G23   29.91F
$$


........................KEY........................
SKY/WX - SKY CONDITION/WEATHER
TMP    - TEMPERATURE IN FAHRENHEIT
DP     - DEW POINT IN FAHRENHEIT
RH     - RELATIVE HUMIDITY IN PERCENT
WIND   - DIRECTION AND SPEED IN MILES PER HOUR (MPH)
VRB    - VARIABLE WIND DIRECTION
PRES   - MEAN SEA LEVEL PRESSURE IN INCHES OF MERCURY
         F - FALLING PRESSURE   R - RISING PRESSURE
         S - STEADY PRESSURE
VSB    - VISIBILITY IN MILES
HX     - HEAT INDEX IN FAHRENHEIT
WCI    - WIND CHILL INDEX IN FAHRENHEIT
TC     - TEMPERATURE IN CELSIUS WHICH IS ALSO KNOWN AS
         TEMPERATURE IN CENTIGRADE
AFB    - AIR FORCE BASE
         LUKE AFB IS LUKE AIR FORCE BASE
         DAVIS-MONTHAN IS DAVIS-MONTHAN AIR FORCE BASE
NAS    - NAVAL AIR STATION
         EL CENTRO NAS IS EL CENTRO NAVAL AIR STATION
N/A    - NOT AVAILABLE




USA.gov is the U.S. government's official web portal to all federal, state and local government web resources and services.